Regional Weather Roundup
Issued by NWS

Home | Current Version | Previous Version | Text Only | Print | Product List | Glossary On
Versions: 1 2 3 4 5 6 7 8 9 10 11 12 13 14 15 16 17 18 19 20 21 22 23 24 25 26 27 28 29 30 31 32 33 34 35 36 37 38 39 40 41 42 43 44 45 46 47 48 49 50
000
ASUS44 KFWD 301003
RWRTX
NORTH TEXAS HOURLY WEATHER ROUNDUP
NATIONAL WEATHER SERVICE FORT WORTH TX
500 AM CDT MON MAY 30 2016

NOTE: "FAIR" INDICATES FEW OR NO CLOUDS BELOW 12,000 FEET WITH NO
SIGNIFICANT WEATHER AND/OR OBSTRUCTIONS TO VISIBILITY.

TXZ118-119-301100-
DALLAS/FORT WORTH METROPLEX

CITY           SKY/WX    TMP DP  RH WIND       PRES   REMARKS
DFW AIRPORT    TSTM      69  62  78 S24       29.91F
DALLAS LOVE    TSTM      68  64  87 SW15G23   29.95F
FTW MEACHAM    LGT RAIN  69  61  75 S23G31    29.90F
DAL-EXECUTIVE  RAIN      68  62  81 SW15G31   29.99F
FTW-ALLIANCE   LGT RAIN  67  62  84 S17G25    29.90F
FTW-NAS-JRB    LGT RAIN  69  61  75 S28G37    29.90F
ARLINGTON      LGT RAIN  70  63  78 S16G24    29.98F
GRAND PRAIRIE  CLOUDY    67  63  85 S18       30.03F
ADDISON        LGT RAIN  68  67  94 S12       29.95F
MESQUITE       CLOUDY    67  66  97 SW10G17   30.01F
LANCASTER      TSTM      65  63  93 W13G21    30.04F
$$

TXZ091>094-102>105-117-120-121-131>134-301100-
NORTH CENTRAL TEXAS

CITY           SKY/WX    TMP DP  RH WIND       PRES   REMARKS
SHRMAN/DENISON RAIN      64  61  90 SE10      30.04R
BRIDGEPORT     CLOUDY    66  66 100 E3        29.93F
DECATUR        LGT RAIN  65  65  98 SE7       29.91F
DENTON         RAIN      67  65  93 SE7       29.92F
MCKINNEY       LGT RAIN  68  66  93 E6        29.98F
ROCKWALL       RAIN      67  67  98 SW7       30.01S
TERRELL        HVY RAIN  68  66  93 W13       30.04R FOG
WAXAHACHIE     RAIN      67  65  93 SW20G29   30.05F
CLEBURNE       LGT RAIN  66  66 100 S14       30.05F
GRANBURY       LGT RAIN  69  63  81 SE25G38   29.86F
$$

TXZ083>090-098>101-113>116-127>130-139>142-154-155-301100-
WESTERN NORTH TEXAS

CITY           SKY/WX    TMP DP  RH WIND       PRES   REMARKS
WICHITA FALLS  CLOUDY    65  62  90 NW8       29.98R
WF-KICKAPOO    CLOUDY    67  61  80 NW6       29.98R
ABILENE        CLOUDY    65  63  93 E5        30.00F
ABILENE-DYESS  CLOUDY    64  61  91 VRB6      29.99R
MINERAL WELLS  CLOUDY    67  62  84 SW14      29.92F
STEPHENVILLE   CLOUDY    67  60  79 SE13      29.97R
COMANCHE       CLOUDY    64  64 100 S14       30.02S
BROWNWOOD      CLOUDY    63  63 100 S5        30.01F
COLEMAN        CLOUDY    64  63  97 SE3       30.02R
$$

TXZ143>147-156>162-174-175-301100-
CENTRAL TEXAS

CITY           SKY/WX    TMP DP  RH WIND       PRES   REMARKS
WACO           LGT RAIN  69  66  90 W10       30.09R
WACO-MCGREGOR  LGT RAIN  69  67  93 NW12      30.10R
HILLSBORO      LGT RAIN  67  64  89 W14       30.08F
CORSICANA      LGT RAIN  75  70  84 SW10      30.05R
MEXIA          CLOUDY    72  72  98 W12G21    30.07R
HEARNE         CLOUDY    72  71  98 CALM      30.04R
CAMERON        CLOUDY    73  72  97 NW7       30.09R
TEMPLE         TSTM      73  71  93 NW7       30.10R
KILLEEN        TSTM      64  63  96 N3        30.08S
KILLEEN-SKYLRK TSTM      65  63  93 NW9       30.09R
FORT HOOD      LGT RAIN  66  64  93 W8        30.08R FOG
HAMILTON       LGT RAIN  66  66 100 SE23G30   29.99F
$$

TXZ095>097-106>112-122>126-135>138-148>153-164>167-301100-
EAST TEXAS

CITY           SKY/WX    TMP DP  RH WIND       PRES   REMARKS
PARIS          CLOUDY    66  57  72 W5        30.03R
SULPHUR SPRNGS CLOUDY    71  65  80 SE7       30.02R
MOUNT PLEASANT CLOUDY    68  65  90 SE5       30.02S
MINEOLA        CLOUDY    73  70  88 SE5       30.02F
TYLER          CLOUDY    72  68  87 S3        30.02R
LONGVIEW       MOCLDY    70  67  90 CALM      30.01S
MARSHALL       MOCLDY    66  64  91 CALM      30.04S
ATHENS         CLOUDY    72  72 100 CALM      30.01S
PALESTINE      CLOUDY    72  70  93 CALM      30.03S
JACKSONVILLE   CLOUDY    72  70  93 S3        30.05S
CENTER         FAIR      71  69  95 CALM      30.02S
NACOGDOCHES    MOCLDY    66  66 100 CALM      30.01F
LUFKIN         MOCLDY    68  67  96 E3        30.01F FOG
$$

SUPPLEMENTAL OBSERVATIONS (CENTRAL)

CITY           SKY/WX    TMP DP  RH WIND       PRES   REMARKS
$$

SUPPLEMENTAL OBSERVATIONS (WEST)

CITY           SKY/WX    TMP DP  RH WIND       PRES   REMARKS
$$

SUPPLEMENTAL OBSERVATIONS (EAST)

CITY           SKY/WX    TMP DP  RH WIND       PRES   REMARKS
$$

SUPPLEMENTAL OBSERVATIONS ARE A COLLECTION OF AUTOMATED INSTRUMENTS
THAT ARE MAINTAINED BY A VARIETY OF FEDERAL AND STATE AGENCIES.
CERTAIN ELEMENTS...SUCH AS HUMIDITY VALUES AND SUSTAINED WIND
SPEEDS...MAY BE APPROXIMATED.





USA.gov is the U.S. government's official web portal to all federal, state and local government web resources and services.